Theta_e
314 314 313 311 309 305 301 287 277 289 292 277 268 270 278 284 282 285 282 282 280 277 279 276 277 278 278 282 282 278 279 275 269 272 275 274 276 275 273 265 264 265 264 266
314 313 312 311 308 305 294 284 281 289 290 271 271 273 279 281 281 282 281 281 282 280 277 278 277 279 280 281 281 279 279 270 262 268 272 274 273 276 274 266 265 265 260 266
314 313 312 310 307 307 292 284 276 279 285 279 276 273 277 277 281 281 282 281 281 279 276 277 274 277 279 280 281 286 281 269 268 269 270 272 272 273 273 268 262 262 267 264
314 313 312 309 306 306 294 287 279 279 276 277 277 280 278 278 277 281 281 278 280 280 275 276 275 276 277 279 283 278 277 268 266 266 270 270 271 272 272 268 269 267 267 267
314 313 312 309 306 305 296 285 281 278 271 281 279 281 276 278 278 280 278 277 280 282 279 282 276 276 276 278 276 275 274 269 269 265 269 269 268 272 271 272 266 266 267 269
314 313 311 309 307 304 289 285 286 288 283 279 279 280 279 281 282 281 282 281 280 280 281 280 280 278 277 278 276 274 274 270 268 264 266 264 264 270 271 269 266 270 266 272
313 313 311 308 307 306 292 289 288 285 279 281 279 283 282 282 282 281 280 283 282 279 281 281 280 277 275 273 272 275 271 270 267 261 260 258 271 269 271 272 271 269 267 266
310 311 311 308 307 306 297 292 289 286 283 283 283 282 283 283 283 281 281 280 282 283 282 276 273 272 271 267 270 271 273 271 262 264 257 266 269 269 269 268 269 271 271 270
310 310 311 308 307 306 294 295 296 287 284 281 286 283 285 281 281 277 277 280 283 284 278 274 270 266 268 265 265 271 271 271 271 257 258 260 269 269 271 272 266 271 272 270
309 310 310 308 307 306 300 294 295 288 285 285 286 283 283 283 281 276 276 276 277 280 274 270 269 266 267 267 266 267 266 266 267 262 260 264 271 272 272 266 270 270 272 272
309 309 309 307 307 306 304 291 295 291 285 284 286 285 283 282 280 275 276 277 276 274 274 274 270 267 267 268 268 267 267 265 261 257 258 264 272 271 269 272 271 273 271 271
309 309 309 309 307 306 305 288 291 290 284 281 283 282 283 286 287 280 280 280 276 278 277 273 270 267 265 268 266 270 269 270 267 268 269 269 275 269 268 267 270 271 271 270
308 308 308 308 308 307 304 291 287 285 280 279 281 280 282 286 285 287 280 279 283 279 280 274 273 271 269 266 265 265 267 264 266 267 270 270 273 267 268 269 270 271 271 269
307 307 307 307 308 308 305 292 292 288 283 277 275 282 279 283 285 284 284 281 281 280 279 274 271 272 272 269 270 270 268 269 266 267 270 270 271 270 270 270 270 268 267 266
307 307 307 307 308 307 301 294 290 289 288 273 273 278 279 283 285 284 284 283 281 278 275 272 270 272 270 269 268 265 269 269 270 271 273 272 273 274 271 269 268 268 266 264
306 306 307 308 304 296 291 284 285 288 285 277 272 275 277 282 284 282 280 280 278 277 276 271 270 272 271 264 264 272 272 272 274 273 273 267 266 274 272 270 268 267 265 265
304 306 305 301 299 295 288 285 286 288 285 275 270 271 275 276 278 277 277 277 275 277 273 269 269 270 270 258 263 271 273 273 269 269 270 268 266 267 269 268 267 265 263 262
301 304 300 300 298 293 285 288 292 288 280 278 270 268 273 276 274 272 276 274 276 272 271 270 270 270 265 265 267 268 270 269 268 268 265 267 267 266 263 263 262 260 260 259
300 303 299 289 285 282 282 292 289 285 280 271 271 269 268 275 272 273 274 277 271 270 271 271 272 267 268 272 271 269 268 271 270 261 261 262 263 264 262 260 259 259 259 258
294 288 282 277 281 292 292 284 279 276 274 275 270 273 267 272 271 271 272 272 269 268 269 270 269 267 270 269 272 274 271 267 265 262 259 257 259 262 260 261 262 262 261 258
283 279 279 284 290 283 280 275 274 271 268 270 268 269 269 274 270 269 272 270 269 268 267 269 264 261 268 270 274 271 270 267 269 262 267 265 265 263 260 255 256 257 256 255
282 284 285 283 279 275 272 269 270 271 266 262 264 267 269 272 275 271 270 267 268 267 263 267 260 266 263 262 263 265 267 267 260 258 262 261 263 263 261 259 256 254 251 249
283 279 274 274 272 270 269 265 261 258 259 263 266 267 270 271 272 269 269 267 265 265 260 262 265 263 262 259 260 259 260 259 258 256 256 256 254 256 256 254 250 250 250 246
272 271 267 264 267 262 262 255 254 256 258 267 266 265 268 270 268 269 264 260 264 263 259 262 262 258 258 259 258 259 258 258 258 256 256 255 254 251 251 252 250 251 249 245
261 265 258 258 257 257 252 252 253 257 262 264 265 267 268 266 263 262 261 260 262 262 263 260 256 255 258 258 258 258 257 256 255 254 255 254 252 253 249 244 245 247 247 246
256 255 258 258 257 257 256 254 258 264 267 267 271 268 266 262 263 261 262 263 261 259 252 253 254 255 256 255 255 255 254 253 252 252 251 250 251 251 249 242 242 243 246 247
253 254 252 252 254 255 254 254 260 264 266 265 262 262 259 259 255 253 248 256 252 253 252 252 252 253 253 252 252 251 250 250 249 249 248 245 243 244 245 248 247 244 245 246
Wind_Speed
41 40 40 41 41 39 19 5 3 1 1 4 0 5 10 8 6 2 2 4 5 8 6 5 5 9 3 5 8 8 3 6 4 4 2 1 2 6 6 7 6 2 3 10
43 43 43 44 46 43 11 7 4 1 2 7 4 3 4 7 7 7 8 7 3 4 8 3 4 4 3 2 5 8 7 1 4 8 6 0 5 5 5 5 4 7 7 8
45 45 46 48 50 41 9 7 6 1 4 2 9 8 6 7 1 6 6 6 5 5 3 2 7 4 2 3 1 4 6 3 8 10 5 6 6 7 6 7 5 5 10 4
49 48 48 52 52 43 7 4 7 9 14 12 5 9 13 12 8 2 6 2 6 10 6 3 4 3 3 3 2 3 4 5 3 2 3 2 1 5 10 10 10 8 5 10
50 49 48 52 53 43 7 10 9 4 3 16 16 15 12 18 6 13 8 7 16 7 9 8 8 9 4 7 2 3 1 2 3 3 4 5 3 6 8 10 3 9 3 15
50 49 52 52 52 37 6 3 2 4 14 11 18 19 19 27 17 4 3 14 8 4 1 7 7 7 6 3 10 7 6 8 4 5 4 4 7 15 19 7 5 10 9 12
28 47 54 55 54 44 7 4 6 6 7 14 17 12 21 18 27 12 4 8 10 6 17 12 13 11 10 9 7 3 7 6 3 3 3 3 7 2 3 13 5 10 2 5
26 23 40 57 55 51 7 6 7 5 6 13 10 11 7 7 5 3 8 2 3 18 9 5 4 3 5 4 4 4 1 6 5 6 5 7 4 7 9 10 10 14 14 7
27 27 31 47 51 52 7 8 4 5 9 13 10 14 12 10 9 5 4 3 18 9 4 4 8 8 7 7 3 2 4 5 4 4 7 11 6 4 5 5 8 10 14 11
29 25 33 45 46 46 9 5 4 6 5 4 13 7 16 10 8 6 6 9 3 2 5 4 5 5 1 8 13 9 4 3 7 4 5 11 6 8 6 8 10 7 12 10
28 26 30 45 44 42 24 5 3 5 4 5 3 6 13 8 9 9 12 7 2 2 5 7 5 4 8 4 3 8 10 10 6 4 2 12 12 6 11 7 3 9 7 9
30 29 27 30 41 41 35 4 4 6 8 3 2 3 2 1 7 11 16 4 12 9 6 4 5 4 3 6 5 2 5 9 10 13 11 0 22 4 3 4 6 7 9 6
27 29 28 27 36 41 33 8 7 7 6 4 2 2 4 4 5 4 9 1 7 4 2 6 4 6 6 8 8 3 5 3 4 3 5 7 18 2 2 4 5 4 5 7
32 30 30 29 29 34 33 9 7 8 6 5 0 2 4 4 4 7 4 8 6 6 2 3 4 4 4 5 4 4 5 13 8 6 3 3 6 9 9 7 6 6 5 5
28 26 26 26 30 35 18 8 2 4 7 6 3 4 5 2 9 9 8 8 7 2 3 3 3 3 5 1 3 4 8 10 10 11 12 7 7 19 14 14 13 12 11 7
23 23 22 25 34 37 13 4 2 2 6 8 5 1 3 3 13 13 10 5 4 3 3 3 0 2 3 5 5 5 13 8 6 6 10 3 2 12 17 15 15 13 11 9
15 24 31 41 39 17 9 8 12 14 5 8 6 3 3 4 5 3 3 4 3 3 1 2 3 2 3 3 6 5 12 9 5 7 11 3 3 8 12 11 12 10 6 5
17 26 35 35 29 18 8 6 26 13 9 5 7 3 3 1 3 3 1 3 2 3 3 1 2 2 3 6 6 3 7 8 5 8 4 0 10 12 8 10 11 9 8 7
27 29 33 10 6 4 5 21 17 7 6 7 4 7 6 4 3 3 2 1 3 0 2 2 2 2 10 8 8 8 11 14 14 8 7 5 6 13 12 10 10 10 9 8
20 8 5 4 2 35 20 5 4 5 4 3 4 4 5 4 2 3 4 1 4 4 2 3 3 8 5 5 7 9 14 10 19 9 4 3 4 12 15 16 12 10 10 9
5 5 4 9 11 4 4 4 4 3 4 1 3 3 8 1 4 4 1 3 3 4 3 4 3 8 5 2 11 8 11 16 14 2 2 6 8 15 15 7 7 7 8 9
6 7 4 3 3 4 6 3 3 3 6 1 6 4 4 3 4 5 2 4 1 4 3 3 5 6 4 6 6 5 6 12 8 3 9 7 9 11 11 9 8 7 5 6
7 5 5 4 4 4 5 7 1 4 4 5 5 6 5 3 3 5 3 4 3 3 2 6 7 3 5 5 4 4 6 9 8 7 7 9 8 8 6 7 4 8 7 5
6 4 6 6 4 5 3 4 4 3 3 11 6 5 4 3 4 3 6 1 2 3 3 9 1 6 8 5 3 2 4 7 9 8 8 9 9 7 5 6 7 9 8 8
6 5 5 6 2 3 3 1 0 3 1 4 5 6 4 3 6 3 6 4 5 6 6 1 4 8 5 3 3 5 6 5 6 5 7 8 7 8 6 3 5 4 5 6
7 10 3 2 2 4 3 4 2 1 2 2 4 5 4 3 6 5 5 9 8 3 2 3 5 6 4 3 5 6 5 5 5 5 5 5 6 6 5 4 3 4 4 6
8 3 1 0 1 1 3 2 3 4 2 4 3 6 2 4 5 3 1 3 2 3 3 3 3 3 3 4 6 6 5 5 5 3 4 4 3 4 4 4 3 4 5 6
Wind_Direction
186 181 177 169 160 151 150 133 130 190 120 105 280 163 186 168 167 154 132 104 119 166 152 149 207 200 239 174 154 159 192 124 153 198 256 208 218 182 148 129 237 194 142 273
186 181 176 169 161 159 136 120 111 338 258 161 227 301 198 175 144 168 162 175 156 142 168 174 192 178 21 200 172 158 188 304 64 352 352 2 208 188 116 113 87 201 138 259
185 181 177 169 165 167 112 126 127 342 229 140 148 152 206 179 138 148 145 138 109 118 102 7 172 138 48 347 198 74 90 88 156 186 187 139 189 181 163 132 129 183 228 221
185 181 178 171 169 164 121 160 182 175 186 208 190 176 166 176 160 243 163 175 216 163 135 123 151 100 86 24 30 62 124 183 115 296 322 17 238 179 174 195 195 182 250 213
186 179 177 173 171 166 150 147 149 102 171 140 175 193 191 182 174 159 212 182 193 207 161 166 169 127 187 194 82 132 23 137 117 347 357 44 303 246 208 221 199 276 274 277
186 180 173 174 173 170 119 134 39 120 150 151 177 206 188 198 156 219 191 172 119 144 85 81 103 84 68 117 151 152 143 138 113 256 355 352 313 230 209 184 192 181 212 240
193 185 176 174 176 183 119 142 134 126 163 179 203 183 197 188 196 165 82 142 139 119 132 101 63 67 72 61 38 41 133 105 57 162 18 294 237 151 214 217 203 206 221 213
162 176 188 174 178 187 139 157 145 136 160 186 179 203 181 135 85 83 123 117 96 158 82 100 95 351 19 344 21 20 74 132 114 153 200 302 253 194 170 166 254 199 207 168
174 179 182 182 183 182 105 169 86 109 121 206 137 172 179 169 164 99 89 63 148 121 118 127 171 186 179 214 29 19 79 52 115 143 172 213 235 168 151 122 287 186 173 172
175 176 173 177 186 187 140 141 126 107 120 169 139 160 176 142 134 120 128 138 187 22 132 134 173 216 210 172 166 166 122 63 180 170 223 286 197 164 167 104 238 157 172 166
172 178 176 176 187 189 195 104 134 124 100 135 148 147 152 132 151 147 152 112 215 107 151 168 194 154 205 140 153 177 157 147 174 92 123 267 150 82 169 196 40 152 154 163
176 177 179 176 188 192 188 107 76 78 77 103 66 67 346 231 144 123 180 141 152 157 151 198 130 140 170 142 203 142 207 183 178 186 205 176 179 161 164 136 147 176 153 154
180 179 182 178 182 191 188 128 141 88 103 54 91 83 8 36 65 120 133 176 164 174 136 149 156 170 148 168 219 125 251 172 162 119 208 197 207 31 202 161 162 134 127 141
188 186 184 186 187 186 180 152 165 103 96 113 118 330 28 339 63 63 41 118 77 92 83 109 140 144 199 187 150 174 178 142 161 268 232 41 241 209 179 161 137 121 104 145
187 189 192 189 183 174 147 115 64 68 131 118 126 122 1 31 102 85 82 116 108 117 94 92 179 124 125 1 59 227 192 167 175 213 184 165 202 192 168 160 171 163 148 137
172 185 194 187 142 127 122 86 332 95 110 112 113 318 20 75 103 93 81 64 56 65 135 156 265 308 112 149 209 232 186 192 183 200 150 103 355 161 161 166 164 163 156 158
149 157 155 138 142 145 139 164 146 130 109 92 105 88 47 30 70 57 80 45 72 72 124 75 124 50 78 102 223 227 202 186 120 124 118 52 238 184 165 145 143 134 112 113
117 153 138 132 116 93 50 98 129 103 90 83 109 93 108 198 108 102 342 97 105 32 130 46 87 58 61 256 236 195 141 114 122 167 34 354 111 121 111 115 127 137 160 157
98 132 124 79 51 96 102 109 80 59 95 114 112 135 158 126 108 116 97 152 96 286 118 152 140 146 225 224 188 181 181 178 174 109 78 77 132 150 146 136 151 160 174 171
89 47 52 84 80 127 120 55 59 42 45 56 94 109 128 127 149 108 113 42 135 156 155 121 185 251 247 206 217 197 181 150 140 115 138 140 155 170 174 187 176 175 171 167
43 38 46 110 93 72 55 97 102 139 77 57 116 108 124 231 115 119 353 144 166 159 186 181 209 267 252 251 209 186 159 162 175 67 138 150 155 171 168 164 164 150 152 185
114 88 89 56 48 76 93 77 100 88 151 141 111 139 117 111 117 109 121 102 178 164 140 161 252 250 353 344 341 17 137 151 120 77 125 122 129 152 158 152 161 159 140 156
54 39 43 15 352 93 160 146 107 112 183 167 148 125 118 122 83 83 114 122 122 134 95 221 233 345 7 350 343 36 59 97 105 95 86 93 100 92 115 138 113 128 155 161
64 30 30 21 7 21 25 115 140 228 154 128 113 91 102 117 83 115 95 66 159 189 217 232 357 346 330 347 346 68 89 99 104 103 103 105 107 97 89 121 137 146 171 174
80 56 38 35 308 316 290 68 59 253 162 102 98 77 84 82 102 65 119 121 202 218 232 330 339 319 325 13 43 89 85 77 79 88 99 100 109 113 115 109 118 133 134 144
62 42 56 19 13 306 354 6 25 338 58 90 55 107 94 84 112 135 188 146 209 239 287 311 320 322 355 33 70 71 76 86 98 79 91 110 113 128 133 112 165 181 155 177
52 30 47 129 204 9 311 314 326 304 49 74 103 78 138 105 62 60 28 193 279 305 320 310 312 331 23 67 76 68 74 92 89 85 75 92 99 110 102 132 209 188 213 218